#timestamp,LO_Frequency,Hit 
1498269615.0,286045977.4,N
1498269615.9,286045977.4,N
1498269635.8,286045980.0,N
1498269655.6,286045979.6,N
1498269675.4,286045979.8,N
1498269695.3,286045979.7,N
1498269715.1,286045981.5,N
1498269735.9,286045979.1,N
1498269755.7,286045979.3,N
1498269775.5,286045979.7,N
1498269795.4,286045980.0,N
1498269815.2,286045980.3,N
1498269835.0,286045979.4,N
1498269835.9,286045979.4,N
1498269855.8,286045979.1,N
1498269875.6,286045980.2,N
1498269895.5,286045979.8,N
1498269915.3,286045980.2,N
1498269935.1,286045977.7,N
1498269955.9,286045979.9,N
1498269975.7,286045977.9,N
1498269995.5,286045977.4,N
1498270015.4,286045977.4,N
1498270035.2,286045980.2,N
1498270055.1,286045979.7,N
1498270056.0,286045979.7,N
1498270075.8,286045980.0,N
1498270095.6,286045977.3,N
1498270115.5,286045979.8,N
1498270135.3,286045977.4,N
1498270155.1,286045979.5,N
1498270175.9,286045980.1,N
1498270195.7,286045980.1,N
1498270215.6,286045979.7,N
1498270235.4,286045980.0,N
1498270255.2,286045978.5,N
1498270275.1,286045978.4,N
1498270276.0,286045978.4,N
1498270295.8,286045980.0,N
1498270315.7,286045979.2,N
1498270335.5,286045979.3,N
1498270355.3,286045981.9,N
1498270375.2,286045980.4,N
1498270395.0,286045979.0,N
1498270395.9,286045979.0,N
1498270415.8,286045979.0,N
1498270435.6,286045980.1,N
1498270455.4,286045977.7,N
1498270475.3,286045977.4,N
1498270495.1,286045977.9,N
1498270515.8,286045977.9,N
1498270535.7,286045979.7,N
1498270555.5,286045977.8,N
1498270575.4,286045978.0,N
1498270595.2,286045979.9,N
1498270615.0,286045977.8,N
1498270615.9,286045977.8,N
1498270635.8,286045978.0,N
1498270655.6,286045978.1,N
1498270675.4,286045978.3,N
1498270695.3,286045978.6,N
1498270715.1,286045978.1,N
1498270735.9,286045978.1,N
1498270755.7,286045978.8,N
1498270775.5,286045976.5,N
1498270795.4,286045976.6,N
1498270815.2,286045976.2,N
1498270835.0,286045975.9,N
1498270836.0,286045975.9,N
1498270855.8,286045978.5,N
1498270875.6,286045978.8,N
1498270895.5,286045977.6,N
1498270915.3,286045977.9,N
1498270935.1,286045978.2,N
1498270955.9,286045978.2,N
1498270975.7,286045978.0,N
1498270995.6,286045980.2,N
1498271015.4,286045979.9,N
1498271035.2,286045980.4,N
1498271055.1,286045978.1,N
1498271056.0,286045978.1,N
1498271075.8,286045978.7,N
1498271095.7,286045978.2,N
1498271115.5,286045978.1,N
1498271135.3,286045975.8,N
1498271155.2,286045978.8,N
1498271175.0,286045978.7,N
1498271175.9,286045978.7,N
1498271195.7,286045975.7,N
1498271215.6,286045976.4,N
1498271235.4,286045977.1,N
1498271255.3,286045976.2,N
1498271275.1,286045975.7,N
1498271295.8,286045978.3,N
1498271315.7,286045978.8,N
1498271335.5,286045975.3,N
1498271355.4,286045974.4,N
1498271375.2,286045976.3,N
1498271395.0,286045976.6,N
1498271395.9,286045976.6,N
1498271415.8,286045974.2,N
1498271435.6,286045974.6,N
1498271455.4,286045977.2,N
1498271475.3,286045974.4,N
1498271495.1,286045977.1,N
1498271515.9,286045977.0,N
1498271535.7,286045974.2,N
1498271555.5,286045975.6,N
1498271575.4,286045974.6,N
1498271595.2,286045974.1,N
1498271615.0,286045976.7,N
1498271616.0,286045976.7,N
1498271635.8,286045977.1,N
1498271655.6,286045974.3,N
1498271675.5,286045977.0,N
1498271695.3,286045974.6,N
1498271715.1,286045974.8,N
1498271735.9,286045975.2,N
1498271755.7,286045987.9,N
1498271775.6,286045973.5,N
1498271795.4,286045972.8,N
1498271815.2,286045974.6,N
1498271835.1,286045974.6,N
1498271836.0,286045974.6,N
1498271855.8,286045976.5,N
1498271875.6,286045976.2,N
1498271895.5,286045976.8,N
1498271915.3,286045977.0,N
1498271935.2,286045978.0,N
1498271955.9,286045975.7,N
1498271975.7,286045977.2,N
1498271995.6,286045974.5,N
1498272015.4,286045977.2,N
1498272035.2,286045976.3,N
1498272055.1,286045978.8,N
1498272056.0,286045978.8,N
1498272075.8,286045978.6,N
1498272095.7,286045975.8,N
1498272115.5,286045977.0,N
1498272135.3,286045976.1,N
1498272155.2,286045975.9,N
1498272175.0,286045977.0,N
1498272175.9,286045977.0,N
1498272195.8,286045977.9,N
1498272215.6,286045976.3,N
1498272235.4,286045976.8,N
1498272255.3,286045976.7,Y
1498272275.1,286047005.2,N
1498272295.8,286047005.4,N
1498272315.7,286047004.6,N
1498272335.5,286047005.9,N
1498272355.4,286047008.3,N
1498272375.2,286047006.8,N
1498272395.0,286047007.3,N
1498272395.9,286047007.3,N
1498272415.8,286047006.7,N
1498272435.6,286047006.5,N
1498272455.4,286047007.3,N
1498272475.3,286047006.3,N
1498272495.1,286047006.9,N
1498272515.9,286047006.6,N
1498272535.7,286047006.8,N
1498272555.5,286047007.1,N
1498272575.4,286047006.4,N
1498272595.2,286047007.0,N
1498272615.0,286047006.4,N
1498272615.9,286047006.4,N
1498272635.8,286047006.9,N
1498272655.6,286047006.6,N
1498272675.5,286047006.3,N
1498272695.3,286047006.1,N
1498272715.1,286047009.2,N
1498272735.9,286047006.6,N
1498272755.7,286047006.2,N
1498272775.5,286047006.3,N
1498272795.4,286047006.9,N
1498272815.2,286047009.2,N
1498272835.1,286047006.2,N
1498272836.0,286047006.2,N
1498272855.8,286047009.1,N
1498272875.6,286047009.1,N
1498272895.5,286047009.2,N
1498272915.3,286047006.8,N
1498272935.1,286047009.1,N
1498272955.9,286047009.1,N
1498272975.7,286047006.8,N
1498272995.6,286047006.2,N
1498273015.4,286047006.7,N
1498273035.2,286047006.3,N
1498273055.1,286047006.7,N
1498273056.0,286047006.7,N
1498273075.8,286047007.4,N
1498273095.6,286047007.0,N
1498273115.5,286047006.8,N
1498273135.3,286047008.6,N
1498273155.2,286047006.8,N
1498273175.9,286047008.4,N
1498273195.7,286047006.5,N
